Weather History for Milk River, Alberta

Change the Weather History Date:

Saturday, November 2, 2013

  Actual Average Record
Temperature  
Mean Temperature 34 °F -  
Max Temperature 44 °F - - ()
Min Temperature 24 °F - - ()
Degree Days  
Heating Degree Days 31    
Moisture  
Dew Point 28 °F    
Average Humidity 77    
Maximum Humidity 89    
Minimum Humidity 57    
Precipitation  
Precipitation 0.00 in - - ()
Sea Level Pressure  
Sea Level Pressure 29.79 in    
Wind  
Wind Speed 6 mph ()    
Max Wind Speed 17 mph    
Max Gust Speed 23 mph    
T = Trace of Precipitation, MM = Missing Value Source: Averaged Metar Reports

Daily Weather History Graph

Daily Weather History Graph

Search for Another Location

Airport:

Trip Planner

Search our weather history database for the weather conditions in past years. The results will help you decide how hot, cold, wet, or windy it might be!

Date:

Astronomy

Nov. 02, 2013 Rise Set
Actual Time 8:17 AM MDT 6:04 PM MDT
Civil Twilight 7:44 AM MDT 6:38 PM MDT
Nautical Twilight 7:06 AM MDT 7:15 PM MDT
Astronomical Twilight 6:29 AM MDT 7:52 PM MDT
Moon 7:15 AM MDT (11/2) 5:40 PM MDT (11/2)
Length of Visible Light 10h 53m
Length of Day
9h 46m
Waning Crescent, 1% of the Moon is Illuminated
Nov 2
Waning Crescent
Nov 3
New
Nov 9
First Quarter
Nov 17
Full
Nov 25
Last Quarter

Hourly Weather History & Observations

Time (MDT) Temp. Windchill Dew Point Humidity Pressure Visibility Wind Dir Wind Speed Gust Speed Precip Events Conditions
12:00 AM 27 °F - 24 °F 82% 30.07 in - WNW 4.6 mph - -  
12:00 AM 27.3 °F 22.0 °F 23.7 °F 86% 30.07 in - WNW 4.6 mph - N/A   Unknown
1:00 AM 27.1 °F 23.2 °F 23.9 °F 88% 30.05 in - West 3.5 mph - N/A   Unknown
2:00 AM 27.0 °F 21.6 °F 23.2 °F 86% 30.03 in - West 4.6 mph - N/A   Unknown
3:00 AM 27.7 °F 23.8 °F 22.3 °F 80% 30.00 in - WSW 3.5 mph - N/A   Unknown
4:00 AM 28.0 °F - 24.8 °F 88% 29.99 in - South 1.2 mph - N/A   Unknown
5:00 AM 27.1 °F - 24.3 °F 89% 29.97 in - West 1.2 mph - N/A   Unknown
6:00 AM 31 °F - 28 °F 82% 29.93 in - SSE 8.1 mph - -  
6:00 AM 31.1 °F 23.7 °F 27.7 °F 87% 29.93 in - SSE 8.1 mph - N/A   Unknown
7:00 AM 30.4 °F 23.6 °F 26.1 °F 84% 29.94 in - South 6.9 mph - N/A   Unknown
8:00 AM 28.8 °F 20.9 °F 25.0 °F 86% 29.89 in - SSE 8.1 mph - N/A   Unknown
9:00 AM 31.3 °F 23.3 °F 26.8 °F 83% 29.86 in - South 9.2 mph - N/A   Unknown
10:00 AM 35.4 °F 30.5 °F 28.2 °F 75% 29.84 in - South 5.8 mph - N/A   Unknown
11:00 AM 35.4 °F 29.7 °F 28.4 °F 76% 29.81 in - South 6.9 mph - N/A   Unknown
12:00 PM 34 °F - 31 °F 84% 29.77 in - ESE 3.5 mph - -  
12:00 PM 34.3 °F 31.4 °F 30.9 °F 87% 29.77 in - ESE 3.5 mph - N/A   Unknown
1:00 PM 35.6 °F 28.0 °F 30.7 °F 82% 29.72 in - SSE 10.4 mph - N/A   Unknown
2:00 PM 38.3 °F 33.9 °F 32.0 °F 78% 29.67 in - SSE 5.8 mph - N/A   Unknown
3:00 PM 41.7 °F 37.3 °F 31.6 °F 67% 29.63 in - South 6.9 mph - N/A   Unknown
4:00 PM 43.7 °F 37.3 °F 31.5 °F 62% 29.60 in - SSE 12.7 mph - N/A   Unknown
5:00 PM 43.2 °F 38.4 °F 31.8 °F 64% 29.59 in - South 8.1 mph - N/A   Unknown
6:00 PM 42 °F - 32 °F 57% 29.58 in - South 8.1 mph - -  
6:00 PM 42.4 °F 37.5 °F 31.8 °F 66% 29.58 in - South 8.1 mph - N/A   Unknown
7:00 PM 42.1 °F 36.1 °F 31.5 °F 66% 29.56 in - South 10.4 mph - N/A   Unknown
8:00 PM 43.0 °F 35.1 °F 31.8 °F 65% 29.55 in - SW 17.3 mph 23.0 mph N/A   Unknown
9:00 PM 42.8 °F 36.2 °F 31.3 °F 64% 29.53 in - SSW 12.7 mph - N/A   Unknown
10:00 PM 38.3 °F 31.4 °F 30.0 °F 72% 29.55 in - SW 10.4 mph - N/A   Unknown
11:00 PM 34.7 °F 28.1 °F 29.1 °F 80% 29.57 in - SW 8.1 mph - N/A   Unknown